Home   Weather   Naples   Past weeks

Flag for USA Past Weather in Naples, Florida, USA — Yesterday and Last 2 Weeks

Now
66 °F

Clear.


Feels Like: 66 °F
Forecast: 67 / 83 °F
Wind: 8 mph from Northeast

Location: Naples Municipal

Current Time: Feb 27, 2017 at 2:47:32 am

Latest Report: Feb 27, 2017 at 1:53 am


Visibility: 10 mi

Pressure: 30.14 "Hg

Humidity: 87%

Dew Point: 62 °F

Location of NaplesLocation

Past Weather in Naples — Graph

°F

Naples Temperature Yesterday

Maximum temperature yesterday: 84 °F (at 2:53 pm)
Minimum temperature yesterday: 66 °F (at 5:53 am)
Average temperature yesterday: 73 °F

High & Low Weather Summary for the Past Weeks

 TemperatureHumidityPressure
High84 °F (Feb 20, 12:53 pm)100% (Feb 13, 5:53 am)30.24 "Hg (Feb 13, 5:53 am)
Low52 °F (Feb 17, 6:53 am)37% (Feb 20, 12:53 pm)29.60 "Hg (Feb 23, 4:53 am)
Average70 °F80%29.96 "Hg
* Reported Feb 12 12:53 am — Feb 27 12:53 am, Naples, Weather by CustomWeather, © 2017

Note: Actual official high and low records may vary slightly from our data, if they occured in-between our weather recording intervals... More about our weather records

Advertising

Naples Weather History for the Previous 24 Hours

Scroll right to see more
 ConditionsComfort  
Time TempWeatherWind HumidityBarometerVisibility
12:53 am
Mon, Feb 27
67 °FClear.10 mph85%30.15 "Hg10 mi
11:53 pm
Sun, Feb 26
68 °FClear.9 mph82%30.16 "Hg10 mi
10:53 pm69 °FClear.13 mph79%30.16 "Hg10 mi
9:53 pm71 °FPassing clouds.10 mph73%30.15 "Hg10 mi
8:53 pm72 °FOvercast.14 mph71%30.14 "Hg10 mi
7:53 pm74 °FPassing clouds.13 mph64%30.12 "Hg10 mi
6:53 pm78 °FPassing clouds.10 mph54%30.10 "Hg10 mi
5:53 pm81 °FPassing clouds.9 mph45%30.08 "Hg10 mi
4:53 pm83 °FPassing clouds.10 mph43%30.07 "Hg10 mi
3:53 pm83 °FPassing clouds.9 mph44%30.06 "Hg10 mi
2:53 pm84 °FScattered clouds.9 mph45%30.06 "Hg10 mi
1:53 pm83 °FBroken clouds.7 mph48%30.08 "Hg10 mi
12:53 pm82 °FPassing clouds.9 mph48%30.10 "Hg10 mi
11:53 am79 °FSunny.13 mph52%30.11 "Hg10 mi
10:53 am76 °FSunny.9 mph48%30.13 "Hg10 mi
9:53 am72 °FSunny.13 mph68%30.13 "Hg10 mi
9:01 am69 °FScattered clouds.13 mph84%30.12 "Hg10 mi
8:37 am68 °FPartly sunny.13 mph87%30.11 "Hg10 mi
7:53 am67 °FSunny.7 mph93%30.09 "Hg10 mi
6:53 am66 °FSunny.5 mph93%30.06 "Hg10 mi
5:53 am66 °FClear.5 mph93%30.03 "Hg10 mi
4:53 am68 °FClear.5 mph87%30.02 "Hg10 mi
3:53 am67 °FClear.No wind93%30.01 "Hg10 mi
2:53 am67 °FClear.No wind93%30.00 "Hg10 mi
Weather by CustomWeather, © 2017

See weather overviewHow to use our weather pages